Regional Weather Roundup
Issued by NWS

Home | Current Version | Previous Version | Text Only | Print | Product List | Glossary Off
Versions: 1 2 3 4 5 6 7 8 9 10 11 12 13 14 15 16 17 18 19 20 21 22 23 24 25 26 27 28 29 30 31 32 33 34 35 36 37 38 39 40 41 42 43 44 45 46 47 48 49 50

000
ASUS45 KSLC 131310
RWRUT

UTAH REGIONAL WEATHER ROUNDUP
NATIONAL WEATHER SERVICE SALT LAKE CITY UT
600 AM MST SAT FEB 13 2016

UTZ001>011-023>025-131400-

NORTHERN UTAH

CITY           SKY/WX    TMP DP  RH WIND       PRES   REMARKS
BRIGHAM CITY   CLOUDY    26  24  93 CALM      30.30F VSB 1
HILL AFB       FOG       26  24  92 N2        30.27S VSB 1/4
LOGAN          CLOUDY    21  20  96 SW8       30.27F FOG     WCI  11
OGDEN          FOG       28  26  92 NW5       30.28S VSB 1/4 WCI  23
PROVO AIRPORT  MOCLDY    21  19  93 N5        30.28R VSB 1/4 WCI  15
SALT LAKE CITY FOG       29  27  92 NW7       30.30R VSB 1   WCI  22
VERNAL         CLOUDY    20  16  84 CALM      30.25F FOG
WENDOVER       CLOUDY    28  25  86 S3        30.29S
HEBER CITY     MOCLDY    14  12  92 E9        30.22F FOG     WCI   2
WEST JORDAN    CLOUDY    28  28 100 NW5       30.29R WCI  23

$$

UTZ012>022-026-027-131400-

SOUTHERN/CENTRAL UTAH

CITY           SKY/WX    TMP DP  RH WIND       PRES   REMARKS
BLANDING       CLOUDY    30  22  70 NE6       30.37S WCI  24
BRYCE CANYON   PTCLDY    10   5  80 SW6       30.32S WCI   0
CEDAR CITY     MOCLDY    23  17  78 E5        30.23S WCI  17
DELTA          CLOUDY    12  10  92 S7        30.28F VSB<1/4 WCI   1
HANKSVILLE     MOCLDY    28  27  93 CALM      30.31S
MILFORD        FOG        9   7  92 CALM      30.27S VSB 1/4
MOAB/CYNLANDS  MOCLDY    31  27  85 CALM      30.26S
PRICE          MOCLDY    29  22  75 CALM      30.25S
ST GEORGE      PTSUNNY   37  25  60 CALM      30.24R
KANAB          CLEAR     32  28  86 NE7       30.30R WCI  26

$$

REGIONAL REPORTS     COLORADO/ARIZONA

CITY           SKY/WX    TMP DP  RH WIND       PRES   REMARKS
CRAIG, CO      CLOUDY     6   2  83 CALM      30.25S
GRAND JUNCTION CLOUDY    25  23  92 E3        30.27S
RIFLE          CLOUDY    20  14  77 CALM      30.29S
MONTROSE       CLOUDY    25  20  81 SE7       30.30S WCI  17
CORTEZ         CLOUDY    21  17  84 E7        30.31S WCI  12
PAGE, AZ       PTCLDY    36  30  79 CALM      30.26S
GRAND CANYON   PTCLDY    24  19  81 E3        30.30S
KINGMAN        CLEAR     35  22  58 SE5       30.17R WCI  31
FLAGSTAFF      CLEAR     23  18  81 CALM      30.32R

$$

REGIONAL REPORTS    NEVADA/IDAHO/WYOMING

CITY           SKY/WX    TMP DP  RH WIND       PRES   REMARKS
LAS VEGAS, NV  PTCLDY    48  22  35 SW3       30.12R
ELY            MOCLDY    18  12  77 S13       30.28S WCI   5
ELKO           CLOUDY    19  15  84 CALM      30.29R
POCATELLO, ID  CLOUDY    26  21  81 E6        30.17S WCI  19
BURLEY         PTCLDY    29  27  92 CALM      30.16R
EVANSTON, WY   CLOUDY    27  12  53 SW14      30.21S WCI  16
ROCK SPRINGS   CLOUDY    32  18  56 SW12      30.17S WCI  23

$$



USA.gov is the U.S. government's official web portal to all federal, state and local government web resources and services.